contact:dominique.lefevre@mio.osupytheas.fr, maurice.libes@osupytheas.fr, didier.mallarino@osupytheas.fr
Project:EMSO http://www.emso-fr.org/EMSO-France
Depth: 2436.0 m
Title:EMSO Ligure Ouest : Data MII capteur CSTAR
DateTime,Latitude,Longitude,Instrument_Serial,Reference_Counts,Signal_Counts,Corrected_Signal_raw_counts,Calculated_Beam_c_inverse_meters,Internal_thermistor_counts
DateTime,Latitude,Longitude,Instrument_Serial,Reference_Counts,Signal_Counts,Corrected_Signal_raw_counts,Calculated_Beam_c_inverse_meters,Internal_thermistor_counts
2021-06-01T00:02:16,42.805,6.029,CST-1368DR,5532,7718,14987,0.164,550
2021-06-01T00:05:17,42.805,6.029,CST-1368DR,5532,7718,14986,0.165,551
2021-06-01T00:08:19,42.805,6.029,CST-1368DR,5532,7723,14996,0.162,551
2021-06-01T00:11:20,42.805,6.029,CST-1368DR,5532,7723,14996,0.162,551
2021-06-01T00:14:22,42.805,6.029,CST-1368DR,5532,7723,14996,0.162,551
2021-06-01T00:17:23,42.805,6.029,CST-1368DR,5532,7723,14995,0.162,551
2021-06-01T00:20:25,42.805,6.029,CST-1368DR,5532,7720,14990,0.164,551
2021-06-01T00:23:27,42.805,6.029,CST-1368DR,5532,7722,14993,0.163,551
2021-06-01T00:26:28,42.805,6.029,CST-1368DR,5532,7720,14991,0.163,551
2021-06-01T00:29:30,42.805,6.029,CST-1368DR,5532,7724,14998,0.162,551
2021-06-01T00:32:31,42.805,6.029,CST-1368DR,5532,7707,14964,0.171,551
2021-06-01T00:35:33,42.805,6.029,CST-1368DR,5532,7722,14995,0.162,551
2021-06-01T00:38:34,42.805,6.029,CST-1368DR,5532,7723,14996,0.162,551
2021-06-01T00:41:36,42.805,6.029,CST-1368DR,5532,7720,14991,0.163,551
2021-06-01T00:44:38,42.805,6.029,CST-1368DR,5532,7723,14996,0.162,551
2021-06-01T00:47:39,42.805,6.029,CST-1368DR,5532,7723,14997,0.162,550
2021-06-01T00:50:41,42.805,6.029,CST-1368DR,5532,7723,14997,0.162,551
2021-06-01T00:53:42,42.805,6.029,CST-1368DR,5532,7720,14991,0.163,551
2021-06-01T00:56:44,42.805,6.029,CST-1368DR,5532,7723,14996,0.162,551
2021-06-01T00:59:46,42.805,6.029,CST-1368DR,5532,7724,14998,0.162,551
2021-06-01T01:02:47,42.805,6.029,CST-1368DR,5532,7724,14998,0.162,551
2021-06-01T01:05:49,42.805,6.029,CST-1368DR,5532,7722,14995,0.162,551
2021-06-01T01:08:50,42.805,6.029,CST-1368DR,5532,7725,14999,0.161,551
2021-06-01T01:11:52,42.805,6.029,CST-1368DR,5532,7724,14998,0.162,551
2021-06-01T01:14:53,42.805,6.029,CST-1368DR,5532,7723,14996,0.162,551
2021-06-01T01:17:55,42.805,6.029,CST-1368DR,5532,7724,14999,0.161,551
2021-06-01T01:20:57,42.805,6.029,CST-1368DR,5533,7724,14994,0.163,551
2021-06-01T01:23:58,42.805,6.029,CST-1368DR,5532,7722,14995,0.162,550
2021-06-01T01:27:00,42.805,6.029,CST-1368DR,5533,7725,14996,0.162,551
2021-06-01T01:30:01,42.805,6.029,CST-1368DR,5533,7722,14992,0.163,551
2021-06-01T01:33:03,42.805,6.029,CST-1368DR,5533,7724,14996,0.162,551
2021-06-01T01:36:05,42.805,6.029,CST-1368DR,5533,7724,14995,0.162,551
2021-06-01T01:39:06,42.805,6.029,CST-1368DR,5533,7724,14995,0.162,551
2021-06-01T01:42:08,42.805,6.029,CST-1368DR,5533,7722,14991,0.163,551
2021-06-01T01:45:09,42.805,6.029,CST-1368DR,5532,7724,14998,0.162,551
2021-06-01T01:48:11,42.805,6.029,CST-1368DR,5533,7724,14994,0.163,551
2021-06-01T01:51:12,42.805,6.029,CST-1368DR,5533,7725,14996,0.162,551
2021-06-01T01:54:14,42.805,6.029,CST-1368DR,5533,7716,14980,0.166,551
2021-06-01T01:57:16,42.805,6.029,CST-1368DR,5533,7723,14993,0.163,550
2021-06-01T02:00:17,42.805,6.029,CST-1368DR,5532,7723,14996,0.162,550
2021-06-01T02:03:19,42.805,6.029,CST-1368DR,5532,7725,14999,0.161,551
2021-06-01T02:06:20,42.805,6.029,CST-1368DR,5532,7720,14991,0.163,551
2021-06-01T02:09:22,42.805,6.029,CST-1368DR,5532,7724,14998,0.162,551
2021-06-01T02:12:23,42.805,6.029,CST-1368DR,5532,7724,14998,0.162,551
2021-06-01T02:15:25,42.805,6.029,CST-1368DR,5532,7725,15000,0.161,551
2021-06-01T02:18:27,42.805,6.029,CST-1368DR,5532,7723,14995,0.162,551
2021-06-01T02:21:28,42.805,6.029,CST-1368DR,5532,7723,14996,0.162,551
2021-06-01T02:24:30,42.805,6.029,CST-1368DR,5532,7722,14994,0.163,551
2021-06-01T02:27:31,42.805,6.029,CST-1368DR,5532,7724,14998,0.162,551
2021-06-01T02:30:33,42.805,6.029,CST-1368DR,5532,7723,14996,0.162,551
2021-06-01T02:33:35,42.805,6.029,CST-1368DR,5532,7724,14998,0.162,551
2021-06-01T02:36:36,42.805,6.029,CST-1368DR,5532,7724,14998,0.162,551
2021-06-01T02:39:38,42.805,6.029,CST-1368DR,5532,7723,14995,0.162,551
2021-06-01T02:42:39,42.805,6.029,CST-1368DR,5532,7723,14996,0.162,551
2021-06-01T02:45:41,42.805,6.029,CST-1368DR,5532,7723,14996,0.162,551
2021-06-01T02:48:42,42.805,6.029,CST-1368DR,5531,7723,14999,0.161,550
2021-06-01T02:51:44,42.805,6.029,CST-1368DR,5531,7723,14999,0.161,551
2021-06-01T02:54:46,42.805,6.029,CST-1368DR,5531,7722,14996,0.162,551
2021-06-01T02:57:47,42.805,6.029,CST-1368DR,5531,7720,14992,0.163,551
2021-06-01T03:00:49,42.805,6.029,CST-1368DR,5531,7721,14994,0.163,550
2021-06-01T03:03:50,42.805,6.029,CST-1368DR,5531,7722,14997,0.162,551
2021-06-01T03:06:52,42.805,6.029,CST-1368DR,5531,7722,14996,0.162,551
2021-06-01T03:09:54,42.805,6.029,CST-1368DR,5531,7721,14994,0.163,551
2021-06-01T03:12:55,42.805,6.029,CST-1368DR,5531,7722,14997,0.162,551
2021-06-01T03:15:57,42.805,6.029,CST-1368DR,5531,7719,14991,0.163,550
2021-06-01T03:18:58,42.805,6.029,CST-1368DR,5532,7722,14995,0.162,551
2021-06-01T03:22:00,42.805,6.029,CST-1368DR,5532,7724,14998,0.162,551
2021-06-01T03:25:01,42.805,6.029,CST-1368DR,5532,7721,14992,0.163,551
2021-06-01T03:28:03,42.805,6.029,CST-1368DR,5532,7724,14997,0.162,551
2021-06-01T03:31:05,42.805,6.029,CST-1368DR,5532,7722,14995,0.162,551
2021-06-01T03:34:06,42.805,6.029,CST-1368DR,5532,7723,14997,0.162,551
2021-06-01T03:37:08,42.805,6.029,CST-1368DR,5532,7719,14988,0.164,551
2021-06-01T03:40:09,42.805,6.029,CST-1368DR,5532,7721,14992,0.163,551
2021-06-01T03:43:11,42.805,6.029,CST-1368DR,5532,7723,14997,0.162,551
2021-06-01T03:46:13,42.805,6.029,CST-1368DR,5532,7723,14995,0.162,551
2021-06-01T03:49:14,42.805,6.029,CST-1368DR,5532,7717,14984,0.165,551
2021-06-01T03:52:16,42.805,6.029,CST-1368DR,5532,7724,14998,0.162,551
2021-06-01T03:55:17,42.805,6.029,CST-1368DR,5532,7720,14991,0.163,551
2021-06-01T03:58:19,42.805,6.029,CST-1368DR,5532,7709,14969,0.169,551
2021-06-01T04:01:20,42.805,6.029,CST-1368DR,5532,7722,14993,0.163,550
2021-06-01T04:04:22,42.805,6.029,CST-1368DR,5532,7723,14996,0.162,551
2021-06-01T04:07:24,42.805,6.029,CST-1368DR,5532,7720,14991,0.163,551
2021-06-01T04:10:25,42.805,6.029,CST-1368DR,5532,7721,14992,0.163,551
2021-06-01T04:13:27,42.805,6.029,CST-1368DR,5532,7722,14995,0.162,551
2021-06-01T04:16:28,42.805,6.029,CST-1368DR,5532,7722,14995,0.162,551
2021-06-01T04:19:30,42.805,6.029,CST-1368DR,5532,7721,14992,0.163,551
2021-06-01T04:22:31,42.805,6.029,CST-1368DR,5532,7723,14997,0.162,551
2021-06-01T04:25:33,42.805,6.029,CST-1368DR,5532,7723,14996,0.162,551
2021-06-01T04:28:35,42.805,6.029,CST-1368DR,5532,7722,14994,0.163,551
2021-06-01T04:31:36,42.805,6.029,CST-1368DR,5533,7722,14991,0.163,551
2021-06-01T04:34:38,42.805,6.029,CST-1368DR,5533,7723,14993,0.163,550
2021-06-01T04:37:39,42.805,6.029,CST-1368DR,5533,7722,14991,0.163,551
2021-06-01T04:40:41,42.805,6.029,CST-1368DR,5532,7720,14990,0.164,551
2021-06-01T04:43:43,42.805,6.029,CST-1368DR,5532,7718,14985,0.165,551
2021-06-01T04:46:44,42.805,6.029,CST-1368DR,5533,7720,14988,0.164,551
2021-06-01T04:49:46,42.805,6.029,CST-1368DR,5533,7719,14986,0.165,551
2021-06-01T04:52:47,42.805,6.029,CST-1368DR,5533,7721,14989,0.164,551
2021-06-01T04:55:49,42.805,6.029,CST-1368DR,5533,7721,14989,0.164,551
2021-06-01T04:58:50,42.805,6.029,CST-1368DR,5533,7720,14988,0.164,551
2021-06-01T05:01:52,42.805,6.029,CST-1368DR,5533,7722,14991,0.163,551
2021-06-01T05:04:54,42.805,6.029,CST-1368DR,5533,7722,14991,0.163,551
2021-06-01T05:07:55,42.805,6.029,CST-1368DR,5533,7720,14988,0.164,551
2021-06-01T05:10:57,42.805,6.029,CST-1368DR,5533,7722,14991,0.163,551
2021-06-01T05:13:58,42.805,6.029,CST-1368DR,5533,7723,14994,0.163,551
2021-06-01T05:17:00,42.805,6.029,CST-1368DR,5533,7723,14994,0.163,551
2021-06-01T05:20:01,42.805,6.029,CST-1368DR,5533,7722,14991,0.163,551
2021-06-01T05:23:03,42.805,6.029,CST-1368DR,5533,7724,14994,0.163,551
2021-06-01T05:26:05,42.805,6.029,CST-1368DR,5533,7723,14993,0.163,551
2021-06-01T05:29:06,42.805,6.029,CST-1368DR,5533,7723,14994,0.163,551
2021-06-01T05:32:08,42.805,6.029,CST-1368DR,5533,7721,14990,0.164,551
2021-06-01T05:35:09,42.805,6.029,CST-1368DR,5533,7724,14996,0.162,551
2021-06-01T05:38:11,42.805,6.029,CST-1368DR,5533,7723,14994,0.163,551
2021-06-01T05:41:13,42.805,6.029,CST-1368DR,5533,7725,14996,0.162,551
2021-06-01T05:44:14,42.805,6.029,CST-1368DR,5533,7723,14994,0.163,551
2021-06-01T05:47:16,42.805,6.029,CST-1368DR,5533,7724,14995,0.162,551
2021-06-01T05:50:17,42.805,6.029,CST-1368DR,5533,7725,14996,0.162,551
2021-06-01T05:53:19,42.805,6.029,CST-1368DR,5533,7724,14995,0.162,551
2021-06-01T05:56:20,42.805,6.029,CST-1368DR,5533,7721,14989,0.164,551
2021-06-01T05:59:22,42.805,6.029,CST-1368DR,5533,7725,14997,0.162,551
2021-06-01T06:02:24,42.805,6.029,CST-1368DR,5533,7726,14999,0.161,551
2021-06-01T06:05:25,42.805,6.029,CST-1368DR,5533,7723,14994,0.163,551
2021-06-01T06:08:27,42.805,6.029,CST-1368DR,5533,7723,14994,0.163,551
2021-06-01T06:11:28,42.805,6.029,CST-1368DR,5533,7724,14994,0.163,550
2021-06-01T06:14:30,42.805,6.029,CST-1368DR,5533,7724,14996,0.162,551
2021-06-01T06:17:32,42.805,6.029,CST-1368DR,5533,7724,14995,0.162,551
2021-06-01T06:20:33,42.805,6.029,CST-1368DR,5533,7724,14994,0.163,551
2021-06-01T06:23:35,42.805,6.029,CST-1368DR,5533,7724,14994,0.163,551
2021-06-01T06:26:36,42.805,6.029,CST-1368DR,5533,7724,14995,0.162,551
2021-06-01T06:29:38,42.805,6.029,CST-1368DR,5533,7724,14995,0.162,551
2021-06-01T06:32:39,42.805,6.029,CST-1368DR,5533,7724,14996,0.162,550
2021-06-01T06:35:41,42.805,6.029,CST-1368DR,5533,7723,14994,0.163,551
2021-06-01T06:38:43,42.805,6.029,CST-1368DR,5533,7722,14991,0.163,551
2021-06-01T06:41:44,42.805,6.029,CST-1368DR,5533,7723,14993,0.163,551
2021-06-01T06:44:46,42.805,6.029,CST-1368DR,5533,7720,14988,0.164,551
2021-06-01T06:47:47,42.805,6.029,CST-1368DR,5533,7723,14994,0.163,551
2021-06-01T06:50:49,42.805,6.029,CST-1368DR,5533,7724,14996,0.162,550
2021-06-01T06:53:50,42.805,6.029,CST-1368DR,5533,7724,14995,0.162,551
2021-06-01T06:56:52,42.805,6.029,CST-1368DR,5533,7724,14996,0.162,551
2021-06-01T06:59:54,42.805,6.029,CST-1368DR,5533,7723,14994,0.163,551
2021-06-01T07:02:55,42.805,6.029,CST-1368DR,5533,7722,14992,0.163,551
2021-06-01T07:05:57,42.805,6.029,CST-1368DR,5533,7724,14995,0.162,551
2021-06-01T07:08:58,42.805,6.029,CST-1368DR,5533,7724,14995,0.162,551
2021-06-01T07:12:00,42.805,6.029,CST-1368DR,5533,7724,14994,0.163,551
2021-06-01T07:15:02,42.805,6.029,CST-1368DR,5533,7724,14994,0.163,551
2021-06-01T07:18:03,42.805,6.029,CST-1368DR,5533,7722,14991,0.163,551
2021-06-01T07:21:05,42.805,6.029,CST-1368DR,5533,7723,14993,0.163,551
2021-06-01T07:24:06,42.805,6.029,CST-1368DR,5533,7724,14996,0.162,551
2021-06-01T07:27:08,42.805,6.029,CST-1368DR,5533,7724,14995,0.162,551
2021-06-01T07:30:09,42.805,6.029,CST-1368DR,5533,7723,14994,0.163,551
2021-06-01T07:33:11,42.805,6.029,CST-1368DR,5533,7723,14993,0.163,551
2021-06-01T07:36:13,42.805,6.029,CST-1368DR,5533,7723,14994,0.163,551
2021-06-01T07:39:14,42.805,6.029,CST-1368DR,5533,7724,14995,0.162,551
2021-06-01T07:42:16,42.805,6.029,CST-1368DR,5533,7722,14992,0.163,551
2021-06-01T07:45:17,42.805,6.029,CST-1368DR,5533,7724,14994,0.163,551
2021-06-01T07:48:19,42.805,6.029,CST-1368DR,5533,7724,14995,0.162,551
2021-06-01T07:51:21,42.805,6.029,CST-1368DR,5533,7724,14994,0.163,551
2021-06-01T07:54:22,42.805,6.029,CST-1368DR,5533,7724,14995,0.162,551
2021-06-01T07:57:24,42.805,6.029,CST-1368DR,5533,7724,14996,0.162,551
2021-06-01T08:00:25,42.805,6.029,CST-1368DR,5533,7724,14996,0.162,551
2021-06-01T08:03:27,42.805,6.029,CST-1368DR,5533,7724,14994,0.163,551
2021-06-01T08:06:28,42.805,6.029,CST-1368DR,5533,7724,14995,0.162,551
2021-06-01T08:09:30,42.805,6.029,CST-1368DR,5533,7725,14996,0.162,551
2021-06-01T08:12:32,42.805,6.029,CST-1368DR,5533,7724,14995,0.162,551
2021-06-01T08:15:33,42.805,6.029,CST-1368DR,5533,7723,14994,0.163,551
2021-06-01T08:18:35,42.805,6.029,CST-1368DR,5533,7724,14994,0.163,551
2021-06-01T08:21:36,42.805,6.029,CST-1368DR,5533,7724,14995,0.162,551
2021-06-01T08:24:38,42.805,6.029,CST-1368DR,5533,7724,14994,0.163,551
2021-06-01T08:27:39,42.805,6.029,CST-1368DR,5533,7724,14995,0.162,551
2021-06-01T08:30:41,42.805,6.029,CST-1368DR,5533,7724,14995,0.162,551
2021-06-01T08:33:43,42.805,6.029,CST-1368DR,5533,7724,14995,0.162,551
2021-06-01T08:36:44,42.805,6.029,CST-1368DR,5533,7725,14996,0.162,551
2021-06-01T08:39:46,42.805,6.029,CST-1368DR,5533,7725,14996,0.162,551
2021-06-01T08:42:47,42.805,6.029,CST-1368DR,5533,7724,14995,0.162,551
2021-06-01T08:45:49,42.805,6.029,CST-1368DR,5533,7725,14997,0.162,551
2021-06-01T08:48:51,42.805,6.029,CST-1368DR,5533,7724,14995,0.162,551
2021-06-01T08:51:52,42.805,6.029,CST-1368DR,5533,7724,14996,0.162,551
2021-06-01T08:54:54,42.805,6.029,CST-1368DR,5533,7724,14996,0.162,551
2021-06-01T08:57:55,42.805,6.029,CST-1368DR,5533,7724,14995,0.162,551
2021-06-01T09:00:57,42.805,6.029,CST-1368DR,5533,7724,14994,0.163,551
2021-06-01T09:03:58,42.805,6.029,CST-1368DR,5533,7724,14995,0.162,551
2021-06-01T09:07:00,42.805,6.029,CST-1368DR,5533,7724,14996,0.162,551
2021-06-01T09:10:02,42.805,6.029,CST-1368DR,5533,7722,14991,0.163,551
2021-06-01T09:13:03,42.805,6.029,CST-1368DR,5533,7725,14997,0.162,551
2021-06-01T09:16:05,42.805,6.029,CST-1368DR,5533,7723,14993,0.163,551
2021-06-01T09:19:06,42.805,6.029,CST-1368DR,5533,7725,14998,0.162,551
2021-06-01T09:22:08,42.805,6.029,CST-1368DR,5533,7724,14994,0.163,551
2021-06-01T09:25:10,42.805,6.029,CST-1368DR,5533,7724,14996,0.162,551
2021-06-01T09:28:11,42.805,6.029,CST-1368DR,5533,7723,14994,0.163,551
2021-06-01T09:31:13,42.805,6.029,CST-1368DR,5533,7725,14996,0.162,551
2021-06-01T09:34:14,42.805,6.029,CST-1368DR,5533,7724,14995,0.162,551
2021-06-01T09:37:16,42.805,6.029,CST-1368DR,5533,7725,14997,0.162,551
2021-06-01T09:40:17,42.805,6.029,CST-1368DR,5533,7724,14996,0.162,551
2021-06-01T09:43:19,42.805,6.029,CST-1368DR,5533,7724,14996,0.162,551
2021-06-01T09:46:21,42.805,6.029,CST-1368DR,5533,7723,14993,0.163,551
2021-06-01T09:49:22,42.805,6.029,CST-1368DR,5533,7724,14994,0.163,551
2021-06-01T09:52:24,42.805,6.029,CST-1368DR,5533,7724,14995,0.162,551
2021-06-01T09:55:25,42.805,6.029,CST-1368DR,5533,7723,14994,0.163,551
2021-06-01T09:58:27,42.805,6.029,CST-1368DR,5533,7724,14996,0.162,550
2021-06-01T10:01:28,42.805,6.029,CST-1368DR,5533,7722,14992,0.163,551
2021-06-01T10:04:30,42.805,6.029,CST-1368DR,5533,7724,14994,0.163,551
2021-06-01T10:07:32,42.805,6.029,CST-1368DR,5533,7724,14995,0.162,551
2021-06-01T10:10:33,42.805,6.029,CST-1368DR,5533,7724,14996,0.162,551
2021-06-01T10:13:35,42.805,6.029,CST-1368DR,5533,7723,14994,0.163,551
2021-06-01T10:16:36,42.805,6.029,CST-1368DR,5533,7724,14994,0.163,551
2021-06-01T10:19:38,42.805,6.029,CST-1368DR,5533,7724,14995,0.162,551
2021-06-01T10:22:40,42.805,6.029,CST-1368DR,5533,7724,14994,0.163,551
2021-06-01T10:25:41,42.805,6.029,CST-1368DR,5533,7723,14994,0.163,551
2021-06-01T10:28:43,42.805,6.029,CST-1368DR,5533,7724,14994,0.163,551
2021-06-01T10:31:44,42.805,6.029,CST-1368DR,5533,7724,14995,0.162,551
2021-06-01T10:34:46,42.805,6.029,CST-1368DR,5533,7724,14996,0.162,551
2021-06-01T10:37:47,42.805,6.029,CST-1368DR,5533,7725,14997,0.162,551
2021-06-01T10:40:49,42.805,6.029,CST-1368DR,5533,7724,14994,0.163,551
2021-06-01T10:43:51,42.805,6.029,CST-1368DR,5533,7723,14994,0.163,551
2021-06-01T10:46:52,42.805,6.029,CST-1368DR,5533,7723,14994,0.163,551
2021-06-01T10:49:54,42.805,6.029,CST-1368DR,5533,7724,14995,0.162,551
2021-06-01T10:52:55,42.805,6.029,CST-1368DR,5533,7722,14992,0.163,551
2021-06-01T10:55:57,42.805,6.029,CST-1368DR,5533,7724,14994,0.163,551
2021-06-01T10:58:58,42.805,6.029,CST-1368DR,5533,7724,14995,0.162,551
2021-06-01T11:02:00,42.805,6.029,CST-1368DR,5533,7724,14994,0.163,551
2021-06-01T11:05:02,42.805,6.029,CST-1368DR,5533,7723,14994,0.163,551
2021-06-01T11:08:03,42.805,6.029,CST-1368DR,5533,7723,14993,0.163,551
2021-06-01T11:11:05,42.805,6.029,CST-1368DR,5533,7723,14994,0.163,551
2021-06-01T11:14:06,42.805,6.029,CST-1368DR,5533,7723,14993,0.163,551
2021-06-01T11:17:08,42.805,6.029,CST-1368DR,5533,7723,14993,0.163,551
2021-06-01T11:20:10,42.805,6.029,CST-1368DR,5533,7721,14990,0.164,551
2021-06-01T11:23:11,42.805,6.029,CST-1368DR,5533,7723,14994,0.163,551
2021-06-01T11:26:13,42.805,6.029,CST-1368DR,5533,7724,14996,0.162,551
2021-06-01T11:29:14,42.805,6.029,CST-1368DR,5533,7725,14996,0.162,551
2021-06-01T11:32:16,42.805,6.029,CST-1368DR,5533,7725,14996,0.162,551
2021-06-01T11:35:17,42.805,6.029,CST-1368DR,5533,7724,14995,0.162,551
2021-06-01T11:38:19,42.805,6.029,CST-1368DR,5533,7724,14996,0.162,551
2021-06-01T11:41:21,42.805,6.029,CST-1368DR,5533,7724,14995,0.162,551
2021-06-01T11:44:22,42.805,6.029,CST-1368DR,5533,7724,14995,0.162,551
2021-06-01T11:47:24,42.805,6.029,CST-1368DR,5533,7724,14994,0.163,551
2021-06-01T11:50:25,42.805,6.029,CST-1368DR,5533,7722,14992,0.163,551
2021-06-01T11:53:27,42.805,6.029,CST-1368DR,5533,7722,14991,0.163,551
2021-06-01T11:56:29,42.805,6.029,CST-1368DR,5533,7723,14993,0.163,551
2021-06-01T11:59:30,42.805,6.029,CST-1368DR,5533,7723,14994,0.163,551
2021-06-01T12:02:32,42.805,6.029,CST-1368DR,5533,7722,14991,0.163,551
2021-06-01T12:05:33,42.805,6.029,CST-1368DR,5533,7723,14993,0.163,550
2021-06-01T12:08:35,42.805,6.029,CST-1368DR,5533,7722,14992,0.163,551
2021-06-01T12:11:36,42.805,6.029,CST-1368DR,5533,7723,14994,0.163,551
2021-06-01T12:14:38,42.805,6.029,CST-1368DR,5533,7723,14994,0.163,551
2021-06-01T12:17:40,42.805,6.029,CST-1368DR,5533,7723,14994,0.163,551
2021-06-01T12:20:41,42.805,6.029,CST-1368DR,5533,7724,14996,0.162,551
2021-06-01T12:23:43,42.805,6.029,CST-1368DR,5533,7723,14994,0.163,551
2021-06-01T12:26:44,42.805,6.029,CST-1368DR,5533,7724,14994,0.163,551
2021-06-01T12:29:46,42.805,6.029,CST-1368DR,5533,7723,14993,0.163,549
2021-06-01T12:32:47,42.805,6.029,CST-1368DR,5533,7724,14995,0.162,551
2021-06-01T12:35:49,42.805,6.029,CST-1368DR,5533,7724,14994,0.163,551
2021-06-01T12:38:51,42.805,6.029,CST-1368DR,5533,7721,14990,0.164,551
2021-06-01T12:41:52,42.805,6.029,CST-1368DR,5533,7723,14993,0.163,551
2021-06-01T12:44:54,42.805,6.029,CST-1368DR,5533,7723,14993,0.163,551
2021-06-01T12:47:55,42.805,6.029,CST-1368DR,5533,7722,14992,0.163,551
2021-06-01T12:50:57,42.805,6.029,CST-1368DR,5533,7722,14992,0.163,551
2021-06-01T12:53:59,42.805,6.029,CST-1368DR,5533,7722,14992,0.163,551
2021-06-01T12:57:00,42.805,6.029,CST-1368DR,5532,7722,14994,0.163,551
2021-06-01T13:00:02,42.805,6.029,CST-1368DR,5531,7720,14993,0.163,551
2021-06-01T13:03:03,42.805,6.029,CST-1368DR,5531,7720,14992,0.163,551
2021-06-01T13:06:05,42.805,6.029,CST-1368DR,5530,7719,14992,0.163,551
2021-06-01T13:09:06,42.805,6.029,CST-1368DR,5530,7718,14992,0.163,551
2021-06-01T13:12:08,42.805,6.029,CST-1368DR,5530,7719,14992,0.163,551
2021-06-01T13:15:10,42.805,6.029,CST-1368DR,5529,7717,14992,0.163,551
2021-06-01T13:18:11,42.805,6.029,CST-1368DR,5529,7718,14993,0.163,550
2021-06-01T13:21:13,42.805,6.029,CST-1368DR,5529,7717,14991,0.163,551
2021-06-01T13:24:14,42.805,6.029,CST-1368DR,5529,7717,14992,0.163,551
2021-06-01T13:27:16,42.805,6.029,CST-1368DR,5528,7717,14995,0.162,551
2021-06-01T13:30:18,42.805,6.029,CST-1368DR,5528,7718,14996,0.162,550
2021-06-01T13:33:19,42.805,6.029,CST-1368DR,5528,7717,14995,0.162,551
2021-06-01T13:36:21,42.805,6.029,CST-1368DR,5528,7717,14995,0.162,551
2021-06-01T13:39:22,42.805,6.029,CST-1368DR,5528,7717,14995,0.162,551
2021-06-01T13:42:24,42.805,6.029,CST-1368DR,5528,7716,14992,0.163,551
2021-06-01T13:45:25,42.805,6.029,CST-1368DR,5528,7716,14993,0.163,551
2021-06-01T13:48:27,42.805,6.029,CST-1368DR,5528,7717,14995,0.162,551
2021-06-01T13:51:29,42.805,6.029,CST-1368DR,5528,7717,14995,0.162,551
2021-06-01T13:54:30,42.805,6.029,CST-1368DR,5528,7716,14993,0.163,551
2021-06-01T13:57:32,42.805,6.029,CST-1368DR,5528,7717,14995,0.162,551
2021-06-01T14:00:33,42.805,6.029,CST-1368DR,5528,7717,14994,0.163,551
2021-06-01T14:03:35,42.805,6.029,CST-1368DR,5528,7717,14994,0.163,551
2021-06-01T14:06:36,42.805,6.029,CST-1368DR,5528,7716,14992,0.163,551
2021-06-01T14:09:38,42.805,6.029,CST-1368DR,5528,7716,14993,0.163,551
2021-06-01T14:12:40,42.805,6.029,CST-1368DR,5528,7717,14994,0.163,551
2021-06-01T14:15:41,42.805,6.029,CST-1368DR,5528,7716,14992,0.163,550
2021-06-01T14:18:43,42.805,6.029,CST-1368DR,5528,7716,14993,0.163,551
2021-06-01T14:21:44,42.805,6.029,CST-1368DR,5528,7716,14992,0.163,551
2021-06-01T14:24:46,42.805,6.029,CST-1368DR,5528,7716,14993,0.163,550
2021-06-01T14:27:48,42.805,6.029,CST-1368DR,5528,7713,14987,0.164,551
2021-06-01T14:30:49,42.805,6.029,CST-1368DR,5528,7716,14993,0.163,551
2021-06-01T14:33:51,42.805,6.029,CST-1368DR,5528,7716,14992,0.163,551
2021-06-01T14:36:52,42.805,6.029,CST-1368DR,5528,7716,14993,0.163,551
2021-06-01T14:39:54,42.805,6.029,CST-1368DR,5528,7715,14991,0.163,551
2021-06-01T14:42:55,42.805,6.029,CST-1368DR,5528,7716,14993,0.163,551
2021-06-01T14:45:57,42.805,6.029,CST-1368DR,5528,7715,14991,0.163,551
2021-06-01T14:48:59,42.805,6.029,CST-1368DR,5528,7715,14991,0.163,551
2021-06-01T14:52:00,42.805,6.029,CST-1368DR,5528,7716,14992,0.163,551
2021-06-01T14:55:02,42.805,6.029,CST-1368DR,5528,7714,14988,0.164,551
2021-06-01T14:58:03,42.805,6.029,CST-1368DR,5528,7716,14992,0.163,551
2021-06-01T15:01:05,42.805,6.029,CST-1368DR,5528,7715,14990,0.164,551
2021-06-01T15:04:07,42.805,6.029,CST-1368DR,5528,7714,14989,0.164,551
2021-06-01T15:07:08,42.805,6.029,CST-1368DR,5528,7714,14989,0.164,550
2021-06-01T15:10:10,42.805,6.029,CST-1368DR,5528,7714,14988,0.164,551
2021-06-01T15:13:11,42.805,6.029,CST-1368DR,5528,7715,14990,0.164,551
2021-06-01T15:16:13,42.805,6.029,CST-1368DR,5527,7715,14993,0.163,551
2021-06-01T15:19:14,42.805,6.029,CST-1368DR,5528,7714,14989,0.164,551
2021-06-01T15:22:16,42.805,6.029,CST-1368DR,5528,7714,14989,0.164,551
2021-06-01T15:25:18,42.805,6.029,CST-1368DR,5528,7713,14987,0.164,551
2021-06-01T15:28:19,42.805,6.029,CST-1368DR,5528,7714,14988,0.164,551
2021-06-01T15:31:21,42.805,6.029,CST-1368DR,5528,7713,14986,0.165,551
2021-06-01T15:34:22,42.805,6.029,CST-1368DR,5528,7714,14988,0.164,551
2021-06-01T15:37:24,42.805,6.029,CST-1368DR,5528,7714,14988,0.164,551
2021-06-01T15:40:25,42.805,6.029,CST-1368DR,5528,7714,14989,0.164,551
2021-06-01T15:43:27,42.805,6.029,CST-1368DR,5528,7714,14988,0.164,551
2021-06-01T15:46:29,42.805,6.029,CST-1368DR,5528,7714,14988,0.164,551
2021-06-01T15:49:30,42.805,6.029,CST-1368DR,5528,7713,14987,0.164,551
2021-06-01T15:52:32,42.805,6.029,CST-1368DR,5528,7712,14985,0.165,551
2021-06-01T15:55:33,42.805,6.029,CST-1368DR,5528,7712,14985,0.165,551
2021-06-01T15:58:35,42.805,6.029,CST-1368DR,5528,7712,14985,0.165,551
2021-06-01T16:01:37,42.805,6.029,CST-1368DR,5528,7713,14986,0.165,551
2021-06-01T16:04:38,42.805,6.029,CST-1368DR,5528,7712,14985,0.165,551
2021-06-01T16:07:40,42.805,6.029,CST-1368DR,5528,7715,14990,0.164,551
2021-06-01T16:10:41,42.805,6.029,CST-1368DR,5528,7714,14989,0.164,551
2021-06-01T16:13:43,42.805,6.029,CST-1368DR,5528,7714,14988,0.164,551
2021-06-01T16:16:44,42.805,6.029,CST-1368DR,5528,7713,14986,0.165,551
2021-06-01T16:19:46,42.805,6.029,CST-1368DR,5528,7713,14986,0.165,551
2021-06-01T16:22:48,42.805,6.029,CST-1368DR,5527,7715,14993,0.163,550
2021-06-01T16:25:49,42.805,6.029,CST-1368DR,5528,7715,14991,0.163,550
2021-06-01T16:28:51,42.805,6.029,CST-1368DR,5528,7711,14983,0.166,551
2021-06-01T16:31:52,42.805,6.029,CST-1368DR,5528,7713,14987,0.164,551
2021-06-01T16:34:54,42.805,6.029,CST-1368DR,5528,7712,14985,0.165,551
2021-06-01T16:37:56,42.805,6.029,CST-1368DR,5528,7711,14983,0.166,551
2021-06-01T16:40:57,42.805,6.029,CST-1368DR,5528,7714,14988,0.164,551
2021-06-01T16:43:59,42.805,6.029,CST-1368DR,5528,7705,14972,0.168,551
2021-06-01T16:47:00,42.805,6.029,CST-1368DR,5528,7713,14986,0.165,551
2021-06-01T16:50:02,42.805,6.029,CST-1368DR,5527,7714,14992,0.163,551
2021-06-01T16:53:03,42.805,6.029,CST-1368DR,5528,7714,14989,0.164,551